Showing default

DUMMY SAT, 40073

Orbit data source: Space-Track

DUMMY SAT, 40073 is a payload satellite owned by DND DSD (CIS) in SSO that was launched on Tue, 08 Jul 2014 UTC via a SOYUZ-2-1B launch vehicle from the Tyuratam Missile And Space Complex (TTMTR). Payload-class satellites include a variety of spacecraft equipped with specific instruments for various scientific and technological missions. These include communications satellites like Starlink; space stations such as the ISS; scientific satellites like the Hubble; Earth observation satellites from companies like Planet Labs, Umbra, and HawkEye 360; GPS; miniature CubeSats for education and research; and military/defense satellites.

Loading next visibility...
Identifier
40073, 2014-037E
Orbit
SSO
Country
Flag of CISCIS
Related business
Manufacturer
ComDev
Mission
Non-operational Civil Technology
Bus & Motor
Unknown
Mass
75 kg wet, 75 kg dry
Launch date (UTC)
2014-07-08 (12 years ago)
Launch vehicle
SOYUZ-2-1B
Launch site
Tyuratam Missile And Space Complex (TTMTR)
Object type
Payload
Rocket body
Debris
Shape & HBR
Box, 0.4 m
Radar Cross Section
0.800 m², Medium (>0.1 m² and < 1m²)

Expand to show TLE details & history
Last TLE update: 6 hours ago

TLE from 6 hours ago
0 DUMMY SAT
1 40073U 14037E   26103.92722605  .00000205  00000-0  32414-4 0  9999
2 40073  98.3672  51.6677 0006215 146.3088 213.8521 14.82997719635910
Epoch: 2026-04-13T22:15Z
TLE epoch observation values (Epoch: 2026-04-13T22:15:12.330Z)
Latitude
0.00004°
Longitude
-124.24449°
Altitude
626.502 km
Speed
7.543 km/s
True Right ascension
03h 26m 40s
True Declination
0° 00' 00"
Sunlit
Object was in daylight at epoch
Visualization orbit readout
Latitude
Unknown
Longitude
Unknown
Altitude
Unknown
Speed
Unknown
Apparent Right ascension
Unknown
Apparent Declination
Unknown
Sunlit
N/A
Visualization observer readout
Local Sidereal Time
11:03:56
Azimuth
Unknown
Elevation
Unknown
Doppler factor
Unknown
Orbital elements
Apogee altitude
621.284 km
Perigee altitude
612.589 km
Semi-major axis
6,995.073 km
Eccentricity
0.00062
Inclination
98.3672°
RAAN
51.6677°
Arg. of periapsis
146.3088°
True anomaly
213.81245°
Mean anomaly
213.8521°
Eccentric anomaly
213.83227°
Mean motion
3.70984 °/min
Orbital period
97.04 mins
BSTAR
0.000032414
Loading maneuver chart data...
Computing Atmospheric mass density...
Loading historical data...
Loading historical data...
Loading historical data...
Loading historical data...
Loading historical data...
Loading historical data...
Loading historical data...

Documentation

Showing up to 5 results
|